DW4236 Weather Reports


Display with metric or nautical units.
time (UTC)temp
F
wind
direction
speed
MPH
gust
MPH
rain 1hr
in
rain 24hr
in
rain mn
in
humidity
%
barometer
mb
20240518125604 63 132 0.0 3.0 0.00 0.00 0.00 74 1018.1
20240518125104 63 92 0.0 0.0 0.00 0.00 0.00 74 1018.1
20240518124605 63 122 1.0 5.0 0.00 0.00 0.00 74 1018.1
20240518123605 62 75 2.0 3.0 0.00 0.00 0.00 76 1017.9
20240518123105 62 151 0.0 3.0 0.00 0.00 0.00 75 1017.9
20240518122605 62 129 2.0 3.0 0.00 0.00 0.00 76 1017.9
20240518121604 61 79 0.0 2.0 0.00 0.00 0.00 78 1017.7
20240518121105 61 152 2.0 3.0 0.00 0.00 0.00 80 1017.7
20240518120605 61 113 2.0 5.0 0.00 0.00 0.00 81 1017.5
20240518115604 60 149 2.0 3.0 0.00 0.00 0.00 82 1017.4
20240518115105 60 138 0.0 3.0 0.00 0.00 0.00 83 1017.4
20240518114606 60 147 0.0 0.0 0.00 0.00 0.00 84 1017.4
20240518114105 59 137 0.0 0.0 0.00 0.00 0.00 85 1017.5
20240518113605 59 138 0.0 0.0 0.00 0.00 0.00 86 1017.4
20240518113104 58 136 0.0 0.0 0.00 0.00 0.00 87 1017.3
20240518112604 58 136 0.0 0.0 0.00 0.00 0.00 87 1017.4
20240518111105 58 136 0.0 0.0 0.00 0.00 0.00 90 1017.1
20240518110605 57 136 0.0 0.0 0.00 0.00 0.00 91 1017.0
20240518110105 57 136 0.0 0.0 0.00 0.00 0.00 91 1017.1
20240518105604 57 165 0.0 0.0 0.00 0.00 0.00 92 1017.0
20240518105106 57 211 0.0 0.0 0.00 0.00 0.00 92 1017.0
20240518104605 57 211 0.0 0.0 0.00 0.00 0.00 92 1017.2
20240518103605 56 211 0.0 0.0 0.00 0.00 0.00 92 1017.1
20240518103105 56 211 0.0 0.0 0.00 0.00 0.00 92 1017.1
20240518102605 56 211 0.0 0.0 0.00 0.00 0.00 92 1017.1
20240518101105 56 211 0.0 0.0 0.00 0.00 0.00 92 1016.8
20240518100605 55 211 0.0 0.0 0.00 0.00 0.00 92 1016.7
20240518095604 56 211 0.0 0.0 0.00 0.00 0.00 91 1016.7
20240518095105 56 211 0.0 0.0 0.00 0.00 0.00 91 1016.6
20240518094605 56 211 0.0 0.0 0.00 0.00 0.00 91 1016.6
20240518094105 56 211 0.0 0.0 0.00 0.00 0.00 91 1016.5
20240518093605 56 211 0.0 0.0 0.00 0.00 0.00 91 1016.5
20240518093104 56 211 0.0 0.0 0.00 0.00 0.00 91 1016.4
20240518092604 56 211 0.0 0.0 0.00 0.00 0.00 91 1016.4
20240518092105 56 211 0.0 0.0 0.00 0.00 0.00 91 1016.4
20240518091605 56 211 0.0 0.0 0.00 0.00 0.00 91 1016.3
20240518091104 56 211 0.0 0.0 0.00 0.00 0.00 91 1016.2
20240518090104 56 211 0.0 0.0 0.00 0.00 0.00 91 1016.0
20240518085105 57 211 0.0 0.0 0.00 0.00 0.00 91 1016.1
20240518084605 57 211 0.0 0.0 0.00 0.00 0.00 91 1016.1
20240518084105 57 211 0.0 0.0 0.00 0.00 0.00 91 1016.0
20240518083105 57 211 0.0 0.0 0.00 0.00 0.00 90 1015.8
20240518082105 57 211 0.0 0.0 0.00 0.00 0.00 90 1015.9
20240518081605 57 211 0.0 0.0 0.00 0.00 0.00 90 1015.8
20240518081104 57 211 0.0 0.0 0.00 0.00 0.00 90 1015.9
20240518075604 57 211 0.0 0.0 0.00 0.00 0.00 90 1015.9
20240518075105 57 211 0.0 0.0 0.00 0.00 0.00 90 1015.9
20240518074105 58 211 0.0 0.0 0.00 0.00 0.00 90 1015.8
20240518073605 58 211 0.0 0.0 0.00 0.00 0.00 90 1015.8
20240518073104 58 211 0.0 0.0 0.00 0.00 0.00 90 1015.8
20240518072606 58 211 0.0 0.0 0.00 0.00 0.00 90 1015.8
20240518072105 59 211 0.0 0.0 0.00 0.01 0.00 89 1015.7
20240518071605 59 211 0.0 0.0 0.00 0.01 0.00 89 1015.8
20240518071105 59 211 0.0 0.0 0.00 0.01 0.00 89 1015.8
20240518070605 59 211 0.0 0.0 0.00 0.01 0.00 89 1015.8
20240518070106 60 211 0.0 0.0 0.00 0.01 0.00 89 1015.8
20240518065604 60 211 0.0 0.0 0.00 0.01 0.00 89 1015.8
20240518065106 60 197 0.0 1.0 0.00 0.01 0.00 89 1015.8
20240518064605 60 200 2.0 5.0 0.00 0.01 0.00 89 1015.7
20240518064104 60 167 0.0 0.0 0.00 0.01 0.00 89 1015.7
20240518063604 60 135 0.0 3.0 0.00 0.01 0.00 89 1015.7
20240518063105 60 139 2.0 8.0 0.00 0.01 0.00 89 1015.6
20240518062104 60 151 2.0 3.0 0.00 0.01 0.00 90 1015.6
20240518061605 60 165 0.0 3.0 0.00 0.01 0.00 91 1015.7
20240518061104 60 152 3.0 7.0 0.00 0.01 0.00 91 1015.7
20240518060605 60 175 0.0 0.0 0.00 0.01 0.00 92 1015.7
20240518055105 59 144 2.0 6.0 0.00 0.01 0.00 92 1015.6
20240518054605 59 159 0.0 3.0 0.00 0.01 0.00 92 1015.5
20240518054106 59 163 1.0 3.0 0.00 0.01 0.00 92 1015.4
20240518053605 59 146 0.0 0.0 0.00 0.01 0.00 92 1015.5
20240518052105 59 146 0.0 0.0 0.00 0.01 0.00 92 1015.5
20240518051105 59 146 0.0 0.0 0.00 0.01 0.00 92 1015.6
20240518050104 59 146 0.0 0.0 0.00 0.01 0.00 92 1015.5
20240518045605 59 147 0.0 0.0 0.00 0.01 0.00 92 1015.7
20240518045105 59 105 0.0 0.0 0.00 0.01 0.00 92 1015.6
20240518044606 59 220 0.0 0.0 0.00 0.01 0.00 92 1015.7
20240518044105 59 220 0.0 0.0 0.00 0.01 0.00 92 1015.6
20240518043605 59 218 0.0 0.0 0.00 0.01 0.00 92 1015.7
20240518043105 59 219 0.0 0.0 0.00 0.01 0.00 91 1015.7
20240518042605 59 219 0.0 0.0 0.00 0.01 0.00 91 1015.7
20240518042105 59 219 0.0 0.0 0.00 0.01 0.00 91 1015.7
20240518041605 59 219 0.0 0.0 0.00 0.01 0.00 91 1015.7
20240518041105 59 219 0.0 0.0 0.00 0.01 0.00 91 1015.8
20240518040605 60 219 0.0 0.0 0.00 0.01 0.00 90 1015.7
20240518040105 60 219 0.0 0.0 0.00 0.01 0.00 90 1015.6
20240518035604 60 219 0.0 0.0 0.00 0.01 0.01 90 1015.6
20240518034605 60 219 0.0 0.0 0.00 0.01 0.01 90 1015.7
20240518034104 60 218 0.0 0.0 0.00 0.01 0.01 89 1015.6
20240518033604 60 218 0.0 0.0 0.00 0.01 0.01 89 1015.7
20240518033105 61 218 0.0 0.0 0.00 0.01 0.01 88 1015.7
20240518032604 61 218 0.0 0.0 0.00 0.01 0.01 88 1015.7
20240518031605 62 307 0.0 0.0 0.00 0.01 0.01 87 1015.7
20240518030605 62 307 0.0 0.0 0.00 0.01 0.01 87 1015.5
20240518030105 63 307 0.0 0.0 0.00 0.01 0.01 87 1015.5
20240518025605 63 307 0.0 0.0 0.00 0.01 0.01 86 1015.6
20240518024605 63 307 0.0 0.0 0.00 0.01 0.01 86 1015.7
20240518024105 64 307 0.0 0.0 0.00 0.01 0.01 86 1015.7
20240518023105 64 307 0.0 0.0 0.00 0.01 0.01 85 1015.6
20240518022604 64 307 0.0 0.0 0.00 0.01 0.01 85 1015.5
20240518021605 65 307 0.0 0.0 0.00 0.01 0.01 85 1015.5
20240518021105 65 307 0.0 0.0 0.00 0.01 0.01 84 1015.4
20240518020104 65 307 0.0 0.0 0.00 0.01 0.01 84 1015.4
20240518015605 65 307 0.0 0.0 0.00 0.01 0.01 83 1015.5
20240518015104 66 307 0.0 0.0 0.00 0.01 0.01 82 1015.4
20240518014604 66 307 0.0 0.0 0.00 0.01 0.01 82 1015.4
20240518014105 66 307 0.0 0.0 0.00 0.01 0.01 81 1015.3
20240518013605 66 307 0.0 0.0 0.00 0.01 0.01 81 1015.3
20240518013104 66 307 0.0 0.0 0.00 0.01 0.01 80 1015.2
20240518012604 66 307 0.0 0.0 0.00 0.01 0.01 80 1015.3
20240518012105 66 307 0.0 0.0 0.00 0.01 0.01 80 1015.3
20240518011605 67 307 0.0 0.0 0.00 0.01 0.01 80 1015.2
20240518011105 67 307 0.0 0.0 0.00 0.01 0.01 80 1015.3
20240518010606 67 307 0.0 0.0 0.00 0.01 0.01 80 1015.3
20240518010105 67 307 0.0 0.0 0.00 0.01 0.01 80 1015.3
20240518005604 67 307 0.0 0.0 0.00 0.01 0.01 79 1015.3
20240518005105 67 307 0.0 0.0 0.00 0.01 0.01 79 1015.3
20240518004605 67 301 0.0 0.0 0.00 0.01 0.01 78 1015.4
20240518004104 68 301 0.0 0.0 0.00 0.01 0.01 78 1015.3
20240518003605 68 301 0.0 0.0 0.00 0.01 0.01 78 1015.4
20240518003104 68 301 0.0 0.0 0.00 0.01 0.01 77 1015.4
20240518002605 68 301 0.0 0.0 0.00 0.01 0.01 77 1015.4
20240518002104 68 301 0.0 0.0 0.00 0.01 0.01 78 1015.4
20240518001604 68 301 0.0 0.0 0.00 0.01 0.01 77 1015.5
20240518001105 68 301 0.0 0.0 0.00 0.01 0.01 77 1015.5
20240518000605 69 301 0.0 0.0 0.00 0.01 0.01 77 1015.5
20240518000105 69 322 0.0 0.0 0.00 0.01 0.01 77 1015.5
20240517235605 69 322 0.0 0.0 0.00 0.01 0.01 76 1015.5
20240517235104 69 322 0.0 0.0 0.00 0.01 0.01 76 1015.4
20240517234604 69 322 0.0 0.0 0.00 0.01 0.01 76 1015.4
20240517234105 69 322 0.0 0.0 0.00 0.01 0.01 75 1015.3
20240517233605 70 322 0.0 0.0 0.00 0.01 0.01 75 1015.3
20240517233105 70 322 0.0 0.0 0.00 0.01 0.01 74 1015.2
20240517232605 70 322 0.0 0.0 0.00 0.01 0.01 73 1015.2
20240517232106 70 322 0.0 0.0 0.00 0.01 0.01 73 1015.2
20240517231105 71 322 0.0 0.0 0.00 0.01 0.01 72 1015.2
20240517230605 71 322 0.0 0.0 0.00 0.01 0.01 71 1015.2
20240517230105 71 322 0.0 0.0 0.00 0.01 0.01 70 1015.1
20240517225604 71 322 0.0 0.0 0.00 0.01 0.01 69 1015.1
20240517224605 71 322 0.0 0.0 0.00 0.01 0.01 69 1015.1
20240517224105 71 320 0.0 0.0 0.00 0.01 0.01 69 1015.2
20240517223604 71 320 0.0 0.0 0.00 0.01 0.01 68 1015.2
20240517223105 71 319 0.0 0.0 0.00 0.01 0.01 68 1015.2
20240517222605 71 305 0.0 0.0 0.00 0.01 0.01 68 1015.2
20240517222105 71 317 0.0 0.0 0.00 0.01 0.01 68 1015.2
20240517221605 71 311 0.0 0.0 0.00 0.01 0.01 67 1015.2
20240517221104 72 298 0.0 0.0 0.00 0.01 0.01 68 1015.2
20240517220604 72 299 0.0 0.0 0.00 0.01 0.01 68 1015.2
20240517220104 72 148 0.0 0.0 0.00 0.01 0.01 67 1015.2
20240517215604 72 141 0.0 0.0 0.00 0.01 0.01 68 1015.2
20240517215105 72 141 0.0 0.0 0.00 0.01 0.01 67 1015.2
20240517214605 72 141 0.0 0.0 0.00 0.01 0.01 67 1015.2
20240517214105 73 141 0.0 0.0 0.00 0.01 0.01 67 1015.2
20240517213605 73 141 0.0 0.0 0.00 0.01 0.01 64 1015.3
20240517213104 72 228 0.0 0.0 0.00 0.01 0.01 63 1015.2
20240517212604 72 228 0.0 0.0 0.00 0.01 0.01 64 1015.2
20240517212105 72 228 0.0 0.0 0.00 0.01 0.01 64 1015.1
20240517211604 72 228 0.0 0.0 0.00 0.01 0.01 66 1015.1
20240517211104 72 228 0.0 0.0 0.00 0.01 0.01 67 1015.2
20240517210604 72 228 0.0 0.0 0.00 0.01 0.01 67 1015.2
20240517210104 72 228 0.0 0.0 0.00 0.01 0.01 65 1015.2
20240517205605 72 203 0.0 0.0 0.00 0.01 0.01 66 1015.2
20240517205104 72 203 0.0 0.0 0.00 0.01 0.01 67 1015.2
20240517204605 71 203 0.0 0.0 0.00 0.01 0.01 68 1015.3
20240517204105 71 203 0.0 0.0 0.00 0.01 0.01 68 1015.2
20240517203605 71 203 0.0 0.0 0.00 0.01 0.01 68 1015.2
20240517203105 71 203 0.0 0.0 0.00 0.01 0.01 68 1015.2
20240517202605 71 203 0.0 0.0 0.00 0.01 0.01 67 1015.2
20240517202105 71 203 0.0 0.0 0.00 0.01 0.01 67 1015.2
20240517201605 71 203 0.0 0.0 0.00 0.01 0.01 66 1015.2
20240517201105 71 203 0.0 0.0 0.00 0.02 0.01 67 1015.3
20240517200605 71 203 0.0 0.0 0.00 0.02 0.01 67 1015.1
20240517200105 71 203 0.0 0.0 0.00 0.03 0.01 66 1015.2
20240517195605 71 203 0.0 0.0 0.00 0.03 0.01 67 1015.1
20240517195105 72 203 0.0 0.0 0.00 0.03 0.01 65 1015.1
20240517194604 72 162 0.0 3.0 0.00 0.03 0.01 65 1015.1
20240517194105 72 116 1.0 3.0 0.00 0.03 0.01 64 1015.1
20240517193605 72 167 0.0 0.0 0.00 0.03 0.01 65 1015.2
20240517193105 72 175 0.0 2.0 0.00 0.03 0.01 64 1015.1
20240517191605 73 140 1.0 3.0 0.00 0.04 0.01 62 1015.1
20240517191105 74 132 2.0 6.0 0.00 0.04 0.01 63 1015.1
20240517190604 73 138 1.0 3.0 0.00 0.04 0.01 63 1015.2
20240517190104 73 160 0.0 3.0 0.00 0.04 0.01 62 1015.2
20240517184604 73 63 3.0 3.0 0.00 0.04 0.01 62 1015.4
20240517184104 73 59 1.0 3.0 0.00 0.04 0.01 63 1015.4
20240517183604 74 19 2.0 3.0 0.00 0.04 0.01 61 1015.5
20240517182605 74 138 2.0 6.0 0.00 0.04 0.01 62 1015.4
20240517182105 74 65 5.0 9.0 0.00 0.04 0.01 62 1015.4
20240517181605 74 96 3.0 7.0 0.00 0.04 0.01 63 1015.5
20240517181104 74 130 2.0 8.0 0.00 0.04 0.01 63 1015.5
20240517180605 74 122 2.0 5.0 0.00 0.04 0.01 63 1015.5
20240517175605 74 217 1.0 5.0 0.00 0.04 0.01 67 1015.5
20240517175105 73 213 1.0 2.0 0.00 0.04 0.01 68 1015.4
20240517174105 72 203 0.0 0.0 0.00 0.04 0.01 68 1015.6
20240517173604 72 110 0.0 0.0 0.00 0.04 0.01 66 1015.7
20240517173105 72 108 1.0 3.0 0.00 0.04 0.01 66 1015.7
20240517172605 72 197 0.0 2.0 0.00 0.04 0.01 66 1015.7
20240517172105 72 51 0.0 0.0 0.00 0.04 0.01 66 1015.8
20240517171604 72 50 0.0 0.0 0.00 0.04 0.01 67 1015.8
20240517171105 72 340 0.0 0.0 0.00 0.04 0.01 67 1015.8
20240517170605 72 301 0.0 0.0 0.00 0.04 0.01 65 1015.8
20240517165605 72 331 0.0 5.0 0.00 0.04 0.01 67 1016.0
20240517165104 72 111 0.0 6.0 0.00 0.04 0.01 68 1015.9
20240517164604 72 73 1.0 3.0 0.00 0.04 0.01 68 1015.9
20240517164105 71 36 1.0 3.0 0.00 0.04 0.01 69 1015.9
20240517163104 71 133 1.0 9.0 0.00 0.04 0.01 69 1015.9
20240517162605 71 161 5.0 10.0 0.00 0.04 0.01 69 1016.0
20240517162104 70 62 2.0 6.0 0.00 0.04 0.01 69 1016.1
20240517161604 70 152 1.0 5.0 0.00 0.04 0.01 68 1016.2
20240517160604 71 100 2.0 8.0 0.00 0.04 0.01 68 1016.2
20240517160104 71 67 1.0 9.0 0.00 0.04 0.01 70 1016.2
20240517155604 71 161 1.0 6.0 0.00 0.04 0.01 70 1016.1
20240517155105 70 113 4.0 10.0 0.00 0.04 0.01 71 1016.1
20240517154605 70 117 2.0 9.0 0.00 0.04 0.01 72 1016.2
20240517154104 69 73 7.0 13.0 0.00 0.04 0.01 72 1016.3
20240517153104 69 159 1.0 8.0 0.00 0.04 0.01 73 1016.4
20240517152605 69 105 5.0 12.0 0.00 0.04 0.01 72 1016.4
20240517151605 69 130 0.0 3.0 0.00 0.04 0.01 74 1016.5
20240517151105 68 107 1.0 3.0 0.00 0.04 0.01 75 1016.5
20240517150604 68 113 3.0 8.0 0.00 0.04 0.01 75 1016.6
20240517150104 68 138 2.0 3.0 0.00 0.04 0.01 76 1016.6
20240517145605 68 2 2.0 6.0 0.00 0.04 0.01 78 1016.6
20240517145104 67 35 2.0 5.0 0.00 0.04 0.01 78 1016.6
20240517144104 67 11 1.0 3.0 0.00 0.04 0.01 77 1016.7
20240517143604 66 109 0.0 0.0 0.00 0.04 0.01 77 1016.6
20240517143105 66 149 1.0 3.0 0.00 0.04 0.01 79 1016.6
20240517142105 65 74 2.0 3.0 0.00 0.04 0.01 79 1016.6
20240517141605 65 85 2.0 8.0 0.00 0.04 0.01 80 1016.5
20240517141105 64 93 1.0 6.0 0.00 0.04 0.01 80 1016.5
20240517140605 64 114 2.0 7.0 0.00 0.04 0.01 82 1016.5
20240517140105 63 103 1.0 3.0 0.00 0.04 0.01 84 1016.6
20240517135605 63 47 2.0 5.0 0.00 0.04 0.01 85 1016.5
20240517135104 62 70 2.0 6.0 0.00 0.04 0.01 85 1016.5
20240517133604 60 64 2.0 3.0 0.00 0.04 0.01 86 1016.6
20240517133105 60 134 1.0 3.0 0.00 0.04 0.01 86 1016.6
20240517132606 60 112 2.0 6.0 0.00 0.04 0.01 85 1016.7
20240517132104 60 108 3.0 7.0 0.00 0.04 0.01 86 1016.8
20240517131104 59 147 2.0 6.0 0.00 0.04 0.01 86 1016.9